sat.trackr.live / text

‹ back to catalog

STARLINK-34460

NORAD 66099 · 2025-236P

PAYLOAD ACTIVE UNKNOWN

§ Identity

Operator
Country
US
Launch date
2025-10-19
Launch site
AFWTR
Launch vehicle
Mass (kg)
RCS (m²)

Purposes: comms

External: N2YO · Heavens-Above · Gunter

§ Orbital elements

Epoch: 2026-05-25T03:18:48.414240Z

Period
94.10 min
Inclination
53.1574°
Eccentricity
0.0001587
Mean motion
15.30211175 rev/d
Perigee alt
474.1 km
Apogee alt
476.3 km
Semi-major
6,853.3 km
B*
8.1570e-4
RAAN
108.4554°
Arg perigee
128.0754°
Mean anomaly
232.0390°
Rev number
3,465

§ Raw data

STARLINK-344601 66099U 25236P   26145.13806035  .00023886  00000+0  81570-3 0  99922 66099  53.1574 108.4554 0001587 128.0754 232.0390 15.30211175 34655

JSON: /api/v1/satellites/66099 · /tle

For live sub-satellite position, see the globe view (requires WebGL).

§ Visibility from observer

Set your observer location to see the next 7 days of passes ≥ 10°. The values pass through the URL so the page stays shareable.

No JS? Fill the form by hand. The geolocation button needs JavaScript.